Regional Weather Roundup
Issued by NWS Albany, NY

Home | Current Version | Previous Version | Text Only | Print | Product List | Glossary On
Versions: 1 2 3 4 5 6 7 8 9 10 11 12 13 14 15 16 17 18 19 20 21 22 23 24 25 26 27 28 29 30 31 32 33 34 35 36 37 38 39 40 41 42 43 44 45 46 47 48 49 50
000
ASUS41 KALY 272310
RWRALY

NEW YORK STATE HOURLY WEATHER ROUNDUP
NATIONAL WEATHER SERVICE ALBANY NY
600 PM EST THU NOV 27 2014

NOTE: "FAIR" INDICATES FEW OR NO CLOUDS BELOW 12,000 FEET WITH NO
SIGNIFICANT WEATHER AND/OR NO OBSTRUCTIONS TO VISIBILITY.

NYZ032-033-038>043-046>054-057>066-NYZ062>081-280000-
EAST


CITY           SKY/WX    TMP DP  RH WIND       PRES   REMARKS
ALBANY         LGT SNOW  29  26  89 NW6       30.03S FOG     WCI  23
GLENS FALLS    CLOUDY    30  23  75 CALM      30.02R
POUGHKEEPSIE   FLURRIES  32  29  88 NW3       30.02R
NEWBURGH       CLOUDY    32  30  93 CALM      30.01R FOG
MONTGOMERY     CLOUDY    32  29  88 CALM      30.00R
WHITE PLAINS   MOCLDY    34  29  82 N6        29.99R WCI  29
ISLIP          CLOUDY    38  29  70 NW8       29.99R WCI  32
NEW YORK CITY  CLOUDY    37  29  72 NW15      30.02R WCI  28
CENTRAL PARK   CLOUDY    37  27  67 VRB7      30.05R WCI  32
$$

NYZ005>009-017-018-044>046-055-056-280000-
CENTRAL


CITY           SKY/WX    TMP DP  RH WIND       PRES   REMARKS
FULTON         LGT SNOW  29  26  89 S3        30.05S FOG
SYRACUSE       FLURRIES  29  27  92 CALM      30.06R
ROME           CLOUDY    29  27  92 W6        30.06S WCI  23
ELMIRA         PTCLDY    26  21  81 NW3       30.05R
BINGHAMTON     MOCLDY    24  22  91 NW5       29.99S WCI  18
MONTICELLO     CLOUDY   N/A N/A N/A W7        29.97S
$$

NYZ026>034-041>043-280000-
NORTH


CITY           SKY/WX    TMP DP  RH WIND       PRES   REMARKS
WATERTOWN      LGT SNOW  30  24  78 CALM      30.06S
FORT DRUM      NOT AVBL
MASSENA        CLOUDY    28  19  69 W3        30.07R
SARANAC LAKE   CLOUDY    23  18  81 CALM      29.94R
PLATTSBURGH    CLOUDY    27  22  81 NW3       30.04S
$$

NYZ001>004-010>016-019>021-280000-
WEST


CITY           SKY/WX    TMP DP  RH WIND       PRES   REMARKS
NIAGARA FALLS  HVY SNOW  31  28  89 W17       30.07R VSB 1/4 WCI  19
BUFFALO        CLOUDY    32  26  78 W6        30.06R WCI  26
DUNKIRK        CLOUDY    34  26  72 W14G20    30.08R WCI  25
JAMESTOWN      CLOUDY    27  21  80 W12G18    30.04S WCI  16
WELLSVILLE     CLOUDY    28  19  69 NW8       30.01R WCI  20
ROCHESTER      CLOUDY    32  26  78 NW7       30.07R WCI  26
PENN YAN       CLOUDY    29  22  75 CALM      30.05R
$$

             KEY
       WCI = WIND CHILL INDEX
       VSB = VISIBILITY
       HX  = HEAT INDEX
$$



USA.gov is the U.S. government's official web portal to all federal, state and local government web resources and services.